GFSMA_con_3kmhel_132.txt.gz
Helicity
160 173 152 159 181 186 180 156 122 90 49 16 -0 98 124 172 160 173 131 90 68 55 45 78 72 89 67 63 60 65 57 54 52 66 71 77 59 62 46 31 39 42 43
184 203 200 177 183 179 174 173 165 131 68 49 76 134 137 148 171 212 178 122 87 65 65 78 91 79 65 67 70 64 52 54 58 61 57 66 47 48 30 25 33 41 40
207 216 216 197 178 172 181 183 173 152 118 110 115 168 114 141 162 188 188 136 81 71 84 96 82 64 61 63 54 47 46 50 56 60 50 57 51 39 21 23 32 34 34
207 233 236 213 199 195 208 201 228 232 167 127 150 213 216 225 164 163 166 126 83 74 76 73 58 60 52 47 36 31 43 46 46 45 39 48 40 28 17 27 32 36 44
204 225 240 242 231 218 224 219 234 267 234 200 177 202 251 223 188 169 125 98 69 97 116 55 65 62 60 47 28 35 35 25 35 36 39 36 33 27 28 33 41 39 48
203 227 260 274 271 258 230 226 243 242 243 213 184 225 149 88 106 139 110 93 90 98 116 90 70 73 62 43 16 32 34 25 27 36 37 37 37 33 34 36 33 40 41
207 272 288 296 299 290 252 234 242 267 273 216 214 100 115 170 146 131 148 127 105 104 119 115 97 87 48 41 22 33 37 31 26 36 37 35 30 27 29 34 31 30 31
196 270 283 262 311 309 313 261 267 292 253 249 222 149 161 192 191 142 140 126 116 114 125 111 96 82 63 60 46 25 29 27 25 34 37 35 31 31 30 26 23 23 22
213 207 242 255 285 329 325 308 285 313 301 233 197 212 252 196 210 211 154 119 90 99 113 120 94 88 86 91 63 34 15 19 39 34 27 23 21 21 18 27 52 75 71
166 213 208 228 282 319 296 296 287 286 298 274 250 116 171 302 327 326 235 140 125 104 97 113 98 101 99 120 76 48 22 -5 17 -0 -0 42 62 77 75 65 64 64 87
131 171 203 160 219 254 263 290 296 309 313 307 339 227 154 257 198 377 447 258 169 112 110 115 110 123 120 118 83 72 52 9 18 58 76 73 74 68 69 79 92 134 185
155 153 160 155 174 232 276 288 285 285 330 303 282 234 270 268 328 393 404 318 203 152 143 133 148 131 127 120 117 97 64 41 75 90 93 92 90 92 93 148 195 210 241
165 166 149 137 183 180 250 253 266 271 274 287 286 267 287 221 344 319 404 440 321 235 230 212 174 214 210 206 187 153 134 172 170 153 151 191 237 291 303 261 262 231 207
105 116 105 146 167 164 195 233 258 254 245 254 271 243 246 193 377 503 434 508 419 330 313 246 264 288 278 251 233 300 322 336 352 346 321 344 396 450 394 282 291 287 273
116 131 145 160 169 163 183 206 231 248 240 231 223 219 266 238 416 575 455 552 423 380 345 294 261 309 382 388 406 424 443 465 492 467 446 361 390 367 318 287 305 388 294
125 124 138 145 162 176 170 199 194 209 233 229 186 178 220 220 426 560 595 587 355 349 387 406 421 418 448 480 428 467 453 478 467 438 406 350 371 364 260 332 292 300 303
114 103 113 135 157 168 183 180 197 240 256 226 186 150 209 210 382 724 531 627 432 324 363 565 573 525 572 493 500 504 481 476 438 404 357 347 377 358 303 240 324 299 237
73 76 144 139 161 169 204 211 219 232 196 167 112 101 142 213 260 442 446 446 413 297 522 525 534 606 592 554 525 469 429 437 409 359 370 288 366 309 177 204 261 231 202
14 112 141 157 155 163 183 179 167 166 156 114 83 127 129 162 153 467 518 525 445 429 434 549 621 623 615 494 517 528 538 592 409 421 357 185 349 176 258 193 206 179 167
51 48 147 139 155 156 162 177 139 153 140 107 86 109 117 179 262 422 348 569 390 468 471 502 611 635 601 492 460 514 412 430 429 383 315 298 189 111 172 218 178 146 169
91 18 133 190 165 156 153 173 139 137 134 114 117 88 112 124 147 265 501 472 545 612 539 565 658 656 612 608 547 483 515 487 490 413 355 120 135 95 173 168 155 163 171
120 79 121 221 202 179 119 153 166 162 134 120 117 94 93 114 146 220 331 619 454 501 624 606 563 633 535 344 549 602 411 562 484 351 322 198 144 156 198 180 150 132 167
94 114 98 184 278 186 132 116 141 178 154 132 128 102 119 135 152 297 321 592 490 398 496 495 501 557 526 383 447 402 432 557 455 464 315 257 285 270 226 182 150 158 152
65 85 111 203 221 238 167 125 172 253 250 225 183 154 135 157 238 368 578 919 858 691 460 386 376 395 357 447 438 455 505 706 507 458 489 410 323 279 253 189 164 186 193
70 -45 131 343 329 262 181 217 292 328 316 259 192 181 138 213 262 395 726 728 990 890 716 522 602 504 437 540 684 737 631 666 571 466 479 361 311 295 259 246 240 214 192
56 41 66 341 332 289 232 259 300 339 349 286 259 214 194 240 389 415 603 823 842 813 947 928 752 775 592 540 580 458 531 618 544 358 288 329 277 300 299 246 217 222 204

GFSMA_con_3kmhel_135.txt.gz
Helicity
159 163 166 166 155 144 142 144 100 59 67 117 138 139 129 101 98 99 127 80 65 59 50 40 46 89 88 68 71 72 61 66 63 62 56 46 38 52 48 41 50 41 31
173 180 199 185 167 158 127 134 110 87 87 147 189 155 109 91 106 133 152 109 71 54 54 48 43 65 57 70 74 62 45 44 60 61 58 51 40 44 42 36 40 25 21
189 190 195 199 188 157 127 114 129 115 150 157 151 202 172 129 86 115 144 137 96 82 77 48 52 70 62 55 59 49 46 37 51 58 55 38 35 26 36 34 34 18 19
204 201 213 201 196 172 150 128 158 180 171 175 165 166 169 114 130 115 165 147 147 100 82 71 68 69 58 61 51 44 37 42 52 51 38 42 28 23 27 29 20 17 17
191 190 204 209 212 183 161 150 174 202 169 196 168 160 173 209 193 224 177 132 126 101 103 82 74 60 61 51 38 33 34 45 43 28 34 34 21 22 27 24 26 21 27
162 186 208 212 226 203 199 189 191 208 175 206 216 196 285 220 219 177 131 126 109 96 93 90 72 61 64 50 43 20 30 34 41 20 36 31 23 28 29 34 33 27 31
146 165 196 211 215 224 231 246 243 226 228 248 291 201 224 178 161 127 129 117 99 91 94 112 115 108 72 66 39 17 28 41 30 44 42 31 31 31 38 36 30 21 17
192 161 186 225 250 237 228 255 241 261 256 265 263 250 197 166 144 75 91 98 101 103 89 122 138 120 113 93 52 5 28 33 29 42 42 37 26 28 28 24 12 4 8
214 191 209 247 267 246 233 256 232 264 285 283 278 284 309 242 204 150 119 140 122 114 111 126 133 125 126 118 56 18 38 41 39 46 38 31 16 22 15 10 2 32 57
252 223 239 223 231 230 168 188 259 265 272 268 334 235 221 250 226 210 157 160 197 117 92 119 146 134 138 126 78 64 35 34 53 39 33 13 12 20 8 44 56 56 58
237 216 220 222 216 206 191 189 261 248 255 296 311 291 220 294 200 268 262 288 207 158 118 102 127 139 151 139 110 83 56 35 30 14 16 15 33 46 60 55 54 84 125
173 173 162 198 214 213 194 200 213 242 244 274 280 289 294 392 351 315 292 277 326 248 176 136 141 121 141 142 131 104 84 49 43 50 81 91 63 51 55 57 117 177 189
120 134 160 161 193 178 173 168 185 206 242 253 322 313 302 275 285 324 267 275 400 435 299 242 168 143 153 177 155 125 109 91 92 104 107 97 81 59 142 216 223 231 216
113 112 138 176 194 149 128 178 207 196 220 214 270 312 278 303 234 284 355 406 392 422 438 269 260 221 178 183 190 168 169 163 184 202 217 251 274 297 319 325 293 262 230
90 124 129 114 144 130 157 171 173 203 240 220 257 277 269 222 230 266 289 375 479 390 415 338 287 228 221 232 251 258 260 278 344 361 372 391 396 397 377 311 339 336 276
61 74 114 139 152 155 156 167 177 171 190 233 240 231 236 202 217 203 332 433 436 358 477 524 418 377 321 386 366 367 421 486 476 500 469 451 414 383 330 361 387 343 273
55 57 63 114 130 152 165 182 160 145 172 207 219 225 225 205 210 202 334 488 499 551 576 744 545 416 490 461 481 527 579 601 576 538 524 505 468 442 356 336 366 390 332
91 58 60 122 110 137 146 145 127 146 175 183 205 187 196 192 151 168 257 561 482 791 704 862 658 629 474 511 584 590 574 555 518 468 463 429 428 445 447 349 217 356 314
71 114 69 80 118 147 153 114 129 152 170 179 194 228 221 188 135 159 180 249 526 523 846 930 723 699 657 531 686 704 631 590 484 345 386 406 405 352 311 390 160 178 250
40 72 107 79 64 146 156 137 140 165 183 198 213 204 179 126 94 139 180 275 537 625 868 881 749 668 645 595 668 710 635 516 456 412 435 406 310 348 289 289 166 88 146
30 62 102 98 105 158 184 178 168 158 158 151 162 168 158 128 94 88 117 206 373 634 714 758 771 712 653 616 577 608 612 551 484 432 490 457 267 262 231 221 146 144 139
33 52 65 145 102 127 167 169 204 171 157 149 148 168 166 126 99 93 103 146 542 714 681 885 808 750 583 581 654 643 718 634 446 388 539 405 287 290 285 240 139 183 166
40 45 64 100 110 112 166 180 183 186 162 153 156 179 171 175 127 106 89 128 198 565 779 682 615 618 712 585 684 653 543 506 517 425 495 335 385 330 273 226 179 163 146
44 30 54 87 113 116 143 153 185 211 183 179 204 197 163 168 129 108 172 234 322 413 496 727 781 660 562 730 630 652 615 617 462 457 461 387 430 361 252 278 161 136 150
67 42 29 68 60 67 103 210 281 259 242 241 218 204 166 179 149 153 239 310 407 559 581 534 474 439 650 659 767 887 717 613 630 522 475 426 517 401 309 230 175 149 155
56 54 11 25 51 50 113 115 252 288 295 257 252 219 195 169 152 196 231 308 426 499 670 778 741 724 632 604 723 674 496 478 604 594 431 515 499 452 306 242 209 193 178

GFSMA_con_3kmhel_138.txt.gz
Helicity
148 139 137 145 118 111 131 133 153 129 167 155 135 129 140 172 171 51 56 73 79 67 38 41 34 50 56 55 60 58 46 55 50 43 41 33 33 29 21 23 31 24 25
177 176 174 160 146 138 128 140 142 118 160 161 147 119 128 153 98 73 71 73 92 67 52 36 21 48 58 48 62 70 56 43 42 40 29 29 33 27 27 24 28 26 33
210 206 200 181 162 169 153 152 126 114 164 167 138 151 146 143 132 58 51 81 97 76 54 43 16 54 50 54 59 57 43 32 38 40 41 34 24 12 25 22 22 26 33
238 233 226 199 200 189 177 149 129 146 167 165 175 155 153 146 113 93 51 64 124 105 70 53 38 64 65 46 39 36 36 24 43 52 44 33 15 8 22 27 21 26 36
216 240 225 217 218 206 191 179 157 185 169 171 165 152 142 173 149 112 92 86 119 134 103 60 61 86 72 60 40 28 27 34 36 47 42 28 17 2 25 26 23 26 40
203 237 223 213 204 212 209 200 194 188 191 173 198 178 130 147 189 184 128 114 120 132 106 89 86 87 70 57 51 26 28 31 47 46 41 23 18 16 29 23 29 40 39
178 180 203 212 197 193 199 204 207 194 262 236 278 235 178 133 134 161 184 147 98 113 107 90 106 106 74 55 45 34 31 26 39 39 36 18 12 21 31 26 35 34 34
158 185 148 186 187 172 199 245 282 277 245 230 281 284 224 181 152 150 158 146 88 117 101 92 101 98 102 84 53 34 30 25 33 44 36 20 18 26 33 33 30 30 27
189 183 163 192 196 191 189 276 284 255 264 232 251 288 247 205 212 158 142 123 72 72 94 105 94 105 109 118 77 34 24 29 48 40 38 33 31 24 22 30 28 24 35
174 166 179 211 220 264 228 245 257 226 246 228 239 249 283 270 207 153 147 134 125 105 133 132 111 110 112 113 100 64 27 26 61 47 51 47 26 23 26 25 24 67 56
179 165 215 233 269 291 218 220 243 190 242 257 273 308 348 317 290 181 150 161 138 107 171 194 168 127 128 121 108 70 52 70 69 55 58 53 32 27 30 23 83 64 95
204 171 198 212 223 211 217 224 216 181 197 219 258 252 326 387 366 315 243 189 168 197 225 200 180 139 145 127 117 93 67 79 84 49 44 54 53 52 61 87 62 90 146
183 126 141 146 181 187 189 202 213 195 178 195 265 241 263 299 342 323 261 293 221 278 275 323 248 179 163 155 127 101 98 104 92 75 58 88 107 110 102 51 104 166 208
122 102 126 118 136 168 167 188 232 193 178 152 181 222 258 250 285 324 314 374 342 283 320 312 462 291 225 170 151 121 111 122 126 127 116 121 143 121 146 193 227 288 310
99 87 112 117 120 150 161 191 216 156 159 133 169 217 245 241 293 329 333 336 318 244 318 339 389 372 284 302 186 179 168 150 188 198 211 212 230 263 294 315 368 380 334
81 69 89 106 118 111 140 178 186 171 130 142 136 166 203 245 271 314 283 324 282 281 307 422 406 452 399 315 250 240 239 220 258 322 348 363 384 396 415 454 478 451 341
70 60 65 88 101 117 132 181 177 185 135 129 155 183 173 217 272 286 258 248 273 286 322 421 552 469 546 458 367 385 386 403 406 437 448 455 473 476 505 541 496 470 397
61 56 72 67 105 118 115 145 170 183 169 148 203 155 157 233 205 228 272 242 243 286 356 575 687 625 536 610 515 496 547 561 607 590 572 530 532 549 603 583 511 443 389
84 75 64 74 98 118 133 151 168 158 179 172 184 129 144 211 197 234 249 226 232 316 368 594 802 792 904 862 845 609 611 676 662 618 627 609 591 580 569 528 458 411 342
74 72 67 67 68 103 118 112 154 170 155 162 150 132 154 181 188 225 224 220 192 266 430 691 614 837 824 801 787 800 608 611 662 588 584 530 549 482 441 444 403 348 317
79 86 75 65 75 85 102 106 139 164 159 158 151 170 191 207 217 227 202 156 145 184 407 576 781 836 901 1036 864 739 802 651 663 612 582 516 497 443 406 399 360 198 271
65 67 88 82 82 60 109 97 138 148 167 172 172 179 189 171 149 136 162 150 183 308 375 633 773 878 841 880 928 760 892 808 665 539 579 547 445 425 381 345 226 215 313
47 40 61 86 80 69 83 107 115 212 176 177 189 206 196 185 150 160 128 120 127 230 370 559 666 771 851 812 972 855 762 754 726 618 607 553 454 495 424 363 280 300 212
46 33 51 87 91 61 92 113 120 202 173 206 234 210 168 152 147 157 143 158 184 186 299 430 502 645 803 924 1023 1119 838 917 641 674 729 732 584 477 420 380 229 269 257
78 45 51 70 96 66 90 72 71 150 230 249 235 173 162 135 129 141 176 178 203 258 349 375 466 455 680 714 1074 1134 806 768 837 574 571 568 542 555 505 344 265 272 218
72 58 34 46 63 52 59 69 34 102 219 289 311 279 177 150 129 147 183 213 193 173 293 429 456 534 618 645 976 899 766 749 1003 747 536 602 427 520 524 354 334 280 225

GFSMA_con_3kmhel_141.txt.gz
Helicity
97 88 83 99 129 125 116 108 114 130 124 114 126 96 102 113 107 143 134 51 14 55 51 53 52 59 44 35 54 51 21 33 37 19 33 19 19 24 23 21 22 24 33
167 155 132 127 135 144 125 123 131 132 126 116 140 112 126 139 110 149 116 61 -19 51 58 47 42 42 55 54 65 54 20 30 35 26 32 23 18 19 18 15 25 29 30
182 202 187 171 159 155 158 144 162 148 137 112 120 123 119 134 112 105 107 91 43 47 66 40 31 39 49 65 75 54 31 38 36 29 23 15 19 18 17 24 19 29 30
208 218 188 175 208 186 178 177 168 182 168 129 112 122 119 116 109 92 96 68 38 37 54 51 39 35 50 68 58 48 39 30 31 38 25 21 17 15 19 32 11 27 30
232 234 209 188 193 197 192 188 189 185 191 152 129 126 120 110 101 120 89 73 59 55 71 82 53 49 60 70 63 48 37 15 27 46 40 23 9 17 16 26 13 23 31
199 217 237 235 259 225 208 205 198 201 178 162 136 146 154 119 114 117 108 125 78 87 74 87 56 52 59 66 55 45 37 20 30 40 32 22 10 13 15 31 16 29 34
170 203 226 241 244 224 220 226 251 209 211 183 221 198 178 137 117 120 117 162 131 95 89 93 76 56 52 60 52 45 29 27 28 37 36 22 10 16 24 29 25 36 36
150 155 155 184 221 212 210 231 269 297 274 269 266 247 173 187 139 110 91 86 88 142 134 110 80 58 43 47 48 40 22 28 37 41 36 18 21 9 26 34 34 44 38
134 121 131 145 169 175 173 214 218 271 304 284 227 293 224 175 233 150 138 105 96 142 100 82 78 69 51 48 63 34 28 34 46 39 42 38 30 17 34 41 45 40 34
275 270 146 156 131 206 161 181 216 229 282 290 262 155 222 227 166 147 127 118 120 123 72 54 79 78 69 65 51 49 54 33 45 49 63 49 32 32 40 37 42 21 61
287 261 206 99 112 200 211 235 280 248 257 250 265 273 195 231 242 215 144 108 103 92 55 74 105 95 85 84 63 59 65 52 43 50 66 67 57 36 36 35 35 39 85
236 158 232 220 257 273 254 297 273 233 216 217 229 192 213 253 271 225 158 134 107 103 126 101 130 163 175 129 86 81 73 66 68 52 74 82 79 59 30 30 36 83 103
148 163 245 244 296 241 218 243 237 205 213 221 203 192 213 180 199 161 199 158 141 142 140 156 135 226 208 210 113 107 90 83 89 84 78 81 99 81 62 51 81 82 125
116 117 191 206 193 168 158 194 215 198 195 201 182 188 213 193 212 177 232 238 201 178 204 190 174 197 297 246 183 144 107 110 98 80 77 80 96 112 122 125 103 167 200
169 127 150 141 123 121 130 138 184 180 191 189 182 212 190 175 222 220 248 268 240 176 213 228 186 191 209 317 300 224 121 124 121 106 92 107 139 189 184 207 281 317 318
164 171 142 115 91 98 113 117 148 147 172 201 198 216 188 200 234 234 274 265 260 232 190 181 176 158 218 306 315 312 234 195 160 161 147 167 216 245 293 365 387 399 394
191 149 112 100 68 78 99 98 119 127 141 161 206 195 181 209 239 224 239 226 272 263 254 311 280 249 256 306 384 346 357 278 188 212 250 247 301 354 407 434 451 453 408
148 113 93 60 59 43 43 92 111 147 145 163 183 192 173 217 210 218 228 206 252 264 264 280 289 343 322 330 400 437 448 375 274 282 355 378 422 476 536 559 531 518 484
139 90 67 76 70 66 78 65 86 112 149 161 174 191 179 192 197 232 192 205 212 223 232 344 379 426 445 522 578 597 571 602 595 469 494 542 581 620 634 634 607 594 530
104 107 97 89 84 91 88 105 82 98 131 164 173 182 188 218 184 195 180 181 207 236 257 341 375 502 464 536 662 738 866 743 734 721 718 727 778 756 724 674 615 577 500
97 97 105 109 111 86 88 96 129 39 90 146 145 180 206 213 148 155 174 191 216 230 289 399 493 509 524 626 651 748 938 897 1011 871 794 775 778 749 691 617 500 459 430
96 95 72 78 98 93 101 124 94 75 70 116 141 155 162 189 175 127 177 205 235 248 325 377 408 411 447 528 679 795 862 952 859 672 781 810 702 646 580 522 458 436 385
66 62 53 67 72 74 94 94 135 60 84 91 149 152 184 214 174 175 167 192 180 178 289 342 359 358 448 532 696 801 877 842 1029 1038 957 726 649 617 565 428 358 366 354
61 52 58 60 77 75 75 86 94 65 40 93 127 207 185 256 189 196 196 171 162 184 226 326 245 245 292 461 669 747 763 857 854 881 901 878 600 600 612 468 348 347 356
85 69 67 58 62 68 83 78 70 72 58 58 69 170 323 231 223 174 187 165 151 145 208 197 258 255 341 411 580 731 778 876 857 819 869 846 802 704 651 507 433 364 337
54 60 74 76 71 64 71 66 70 58 45 39 87 201 221 208 143 152 158 164 146 118 232 275 309 358 381 449 573 620 798 798 878 964 933 874 880 886 719 604 443 455 308

GFSMA_con_3kmhel_147.txt.gz
Helicity
61 57 36 53 36 47 43 72 57 67 55 43 30 59 66 6 64 86 122 132 144 85 52 14 23 76 74 69 61 40 57 50 46 47 39 40 47 43 40 51 45 48 39
74 72 74 77 62 49 44 52 42 82 91 60 89 75 65 61 76 99 104 148 160 117 40 29 22 60 71 70 67 49 60 48 53 48 39 41 36 39 42 43 39 37 31
90 98 75 99 96 95 100 84 75 67 86 96 91 106 69 79 128 143 118 121 119 128 37 28 49 52 56 70 71 56 60 66 62 49 44 44 38 46 40 40 35 27 28
116 168 131 118 120 164 146 119 110 114 95 105 99 141 93 88 148 153 95 102 91 100 62 18 43 72 56 73 69 60 54 78 60 60 60 44 47 45 44 36 27 21 33
179 219 178 176 206 240 226 158 136 153 199 108 131 171 109 102 199 164 99 120 106 98 145 66 53 69 79 77 70 57 62 83 69 70 65 55 46 45 43 30 23 25 30
179 199 224 220 237 315 311 207 155 146 206 135 111 178 204 131 181 178 129 174 109 139 130 129 112 60 93 91 85 50 68 86 62 63 67 64 42 44 36 29 22 24 21
221 195 242 255 336 357 357 296 211 181 201 174 146 233 266 212 156 196 178 169 124 188 132 134 113 83 109 96 93 69 67 80 72 57 55 62 56 53 43 27 26 33 19
247 222 210 293 354 323 302 332 278 290 250 214 221 237 269 251 172 166 169 156 148 154 149 141 155 150 143 118 99 95 76 69 58 56 73 64 63 63 57 35 27 24 29
207 226 177 243 258 270 323 337 354 388 325 290 198 301 320 248 167 154 169 164 176 191 144 160 165 151 143 160 114 124 89 82 71 63 100 95 63 64 50 42 31 24 33
158 210 235 221 260 367 336 363 325 333 331 267 282 174 178 163 153 108 108 155 204 204 178 146 212 146 179 145 114 135 124 91 78 71 107 113 88 67 53 35 31 25 34
166 218 237 203 236 285 333 339 300 262 196 387 247 210 155 143 139 156 135 160 121 151 154 158 171 160 160 201 178 123 179 118 73 89 120 122 108 79 59 49 28 28 44
183 169 239 280 230 268 300 305 244 217 269 234 291 274 148 164 142 132 127 154 45 83 149 139 167 201 168 216 132 106 207 154 110 112 150 144 119 96 81 78 62 42 46
171 143 164 226 258 271 357 243 91 132 132 215 238 258 126 76 113 103 106 115 139 94 133 142 134 159 164 152 119 118 217 190 148 133 152 159 160 125 94 88 86 68 62
269 310 376 355 409 289 387 153 258 226 125 212 209 162 135 84 148 96 98 122 133 161 254 138 142 150 150 150 167 199 199 207 189 162 147 186 183 164 122 83 73 79 70
396 209 194 183 157 195 155 154 253 320 232 175 144 121 160 161 167 121 114 122 119 175 173 238 200 140 143 179 200 222 240 213 223 247 254 331 182 163 138 110 94 101 91
381 322 260 166 137 72 184 170 178 140 91 128 181 161 152 137 168 124 121 141 128 117 158 168 74 143 158 178 197 251 253 277 246 235 247 220 205 196 173 146 133 108 120
395 290 186 195 179 216 220 140 110 100 133 130 138 150 143 162 199 190 159 148 140 161 101 148 155 124 160 160 202 200 191 223 222 195 230 242 256 199 188 182 166 155 170
257 225 180 200 203 204 152 126 216 106 123 120 113 133 133 166 154 150 174 145 148 156 155 118 229 297 293 223 185 226 210 206 203 191 166 269 315 250 225 198 212 242 283
246 216 153 193 172 170 157 160 147 142 145 106 69 90 101 128 180 179 195 193 186 180 184 191 230 364 472 431 310 304 320 316 274 290 171 252 312 273 281 290 317 301 373
195 208 168 163 162 158 145 184 184 159 112 93 112 105 76 91 158 142 184 212 189 221 213 208 286 420 375 354 304 298 271 278 243 259 261 205 216 269 367 398 453 507 451
103 158 155 133 130 156 150 148 139 134 120 121 134 90 101 77 91 118 171 186 175 215 220 208 360 417 400 345 298 296 256 267 231 233 240 255 275 279 357 496 494 560 549
83 105 109 111 110 100 45 77 84 88 109 113 117 125 95 79 87 96 115 157 172 222 201 275 316 335 293 281 277 336 340 323 215 214 272 299 345 386 479 493 552 651 739
82 74 108 108 116 108 64 86 70 84 86 87 106 123 103 101 78 87 68 97 133 177 198 255 329 335 285 270 337 314 328 295 279 248 290 332 385 409 530 609 726 731 919
62 55 71 76 97 75 47 56 65 67 69 79 89 85 88 79 52 81 74 134 119 154 193 384 288 253 229 194 249 262 300 413 390 267 360 323 366 392 450 601 774 909 1032
60 44 55 78 78 59 11 49 73 57 60 55 47 53 50 53 73 97 78 62 172 186 202 179 298 241 212 209 276 401 382 371 344 294 346 374 396 479 513 576 684 850 1094
117 98 69 72 40 76 88 95 61 14 28 11 31 14 27 34 30 74 73 63 75 117 168 227 276 245 217 240 335 265 345 358 407 324 328 457 454 483 498 524 624 675 742

GFSMA_con_3kmhel_153.txt.gz
Helicity
97 99 137 157 140 131 125 129 110 83 59 47 39 62 32 128 161 152 120 113 129 158 153 154 122 87 93 46 69 63 57 66 76 74 71 62 59 47 47 52 53 57 44
133 122 146 162 177 168 134 158 149 115 66 65 71 95 58 144 194 168 110 102 143 152 162 145 109 77 83 43 75 67 54 48 67 69 61 57 49 41 44 49 55 53 47
157 115 140 163 186 187 153 156 135 145 110 77 76 113 123 133 201 207 176 135 134 147 136 121 123 71 72 54 76 74 61 44 76 90 70 44 42 36 53 63 61 45 51
152 136 130 141 193 210 197 171 169 172 166 139 109 113 174 174 211 260 244 194 151 131 130 129 118 79 46 57 78 65 69 66 86 112 83 56 50 40 49 64 56 47 50
153 165 163 160 162 212 208 234 204 205 218 199 193 184 192 218 258 328 288 241 192 170 157 127 122 85 80 56 81 74 72 71 80 104 83 71 48 44 52 50 45 49 57
104 151 209 182 168 177 208 250 255 275 274 277 242 238 225 201 242 338 332 254 266 216 171 136 119 98 120 93 86 83 79 89 83 90 94 82 56 41 53 56 40 45 55
87 115 161 208 228 195 193 248 320 351 327 359 384 322 294 259 246 287 368 333 282 260 201 169 147 162 129 128 122 86 65 88 89 85 96 92 96 51 65 86 49 39 43
72 152 157 191 174 232 225 291 342 369 346 340 302 463 371 356 267 374 378 373 297 284 243 202 181 193 196 161 150 118 91 97 95 94 105 103 105 91 80 85 61 48 51
240 126 161 190 234 246 282 289 307 312 305 373 307 397 385 414 475 458 441 389 323 319 288 257 215 200 219 217 202 131 109 108 87 127 117 125 112 105 92 92 66 61 65
141 214 118 170 228 219 207 210 182 241 294 298 371 338 429 390 476 518 420 303 300 315 360 336 252 225 219 241 218 218 160 141 122 143 144 144 132 123 97 98 81 59 66
8 140 212 123 149 241 191 207 226 249 260 301 334 426 496 521 502 508 456 273 244 207 324 401 305 262 242 227 232 226 205 162 127 157 143 159 151 142 119 97 86 66 63
-44 9 121 194 129 235 206 235 195 210 204 205 249 313 352 387 412 440 185 180 265 297 334 293 292 279 263 248 241 251 250 200 173 166 162 161 165 139 130 111 89 73 70
106 68 25 141 183 154 138 186 180 171 192 160 205 336 394 329 313 172 125 179 311 313 303 285 270 263 278 280 279 285 271 245 210 197 153 131 179 157 142 122 98 78 76
130 242 149 21 152 149 152 169 251 274 262 319 304 397 466 404 231 93 119 164 177 204 253 255 195 205 267 282 307 306 261 279 237 202 168 138 187 203 182 155 115 96 91
172 267 304 159 108 151 154 187 226 242 290 326 368 381 372 303 341 303 185 172 166 106 160 190 144 129 159 210 254 301 246 258 261 202 181 157 190 222 231 196 159 127 105
259 102 382 369 173 158 205 224 264 309 354 355 300 279 266 246 259 213 191 142 123 178 168 137 139 170 99 170 235 286 241 252 235 251 196 174 198 208 239 231 204 168 168
259 134 419 461 481 143 222 267 244 265 242 250 202 174 147 149 131 140 124 123 128 169 155 153 170 148 161 156 190 190 218 235 202 211 211 190 234 234 252 263 256 246 212
203 172 275 847 568 626 582 433 263 200 153 45 -17 -56 50 102 102 97 112 130 140 169 149 73 99 138 182 203 182 169 168 232 201 134 187 191 238 261 271 280 252 250 248
232 298 216 697 491 370 681 649 641 476 363 245 223 156 114 77 44 49 45 57 67 91 89 77 86 167 136 219 255 253 220 203 239 156 160 202 253 261 266 263 253 254 265
181 242 243 162 445 238 461 411 447 418 316 256 185 187 177 177 160 92 98 82 64 87 87 97 111 155 203 257 252 271 253 309 303 350 203 196 220 216 207 210 228 255 227
170 125 208 206 21 133 65 181 343 256 242 221 184 196 195 147 155 100 89 66 100 88 90 96 118 202 167 150 224 353 216 313 262 329 386 313 307 245 164 122 120 150 213
78 129 146 154 71 26 107 129 241 306 224 190 181 181 148 113 89 48 68 58 72 94 92 73 103 195 157 251 191 188 180 329 288 269 335 327 314 252 284 207 153 129 174
-40 -13 49 124 78 -40 63 58 260 153 163 107 140 118 120 105 107 97 123 119 108 99 65 95 121 124 181 191 257 282 315 375 268 311 428 417 322 270 304 233 211 169 138
24 33 47 39 51 -47 -22 32 154 110 102 100 103 114 136 131 77 60 72 93 77 107 114 99 116 95 87 158 262 273 264 299 391 421 467 324 369 281 296 287 228 163 124
35 50 54 48 37 -19 -19 -5 52 73 76 90 68 84 94 83 80 88 44 33 62 75 96 120 125 136 111 79 180 353 326 380 269 256 338 296 281 393 302 300 255 203 141
36 32 37 34 31 64 81 -8 25 -14 38 52 63 53 74 49 96 133 42 12 37 63 60 96 96 107 110 120 104 217 311 290 340 322 280 394 348 322 279 293 281 260 265

GFSMA_con_3kmhel_156.txt.gz
Helicity
94 127 156 153 141 146 136 130 114 101 88 70 59 71 92 90 90 87 102 101 81 95 137 153 161 119 84 95 49 63 63 68 73 88 79 72 58 58 51 51 42 44 52
137 122 141 167 162 167 154 149 140 127 107 110 85 93 90 129 130 128 117 103 90 91 148 165 177 124 80 94 75 66 68 68 77 82 71 67 61 48 40 40 41 52 49
148 146 132 147 175 207 182 173 148 138 126 119 116 96 112 154 189 157 161 116 90 120 159 137 142 139 78 94 64 82 73 70 92 85 77 72 50 37 41 36 60 54 54
135 149 152 128 151 203 239 200 200 162 130 136 131 114 99 161 187 225 183 182 142 133 124 117 136 141 113 102 70 78 75 66 80 96 90 61 53 32 33 40 50 60 61
65 124 120 120 175 215 224 222 230 241 191 151 163 149 112 171 193 269 233 232 222 188 152 98 136 139 117 106 87 66 70 65 82 108 106 100 67 39 33 39 56 56 61
136 102 112 102 136 186 236 225 214 254 235 217 181 177 138 154 239 272 314 273 247 220 207 168 122 113 127 118 97 72 57 66 70 89 92 102 76 53 42 46 54 47 47
82 88 124 195 97 174 168 248 265 253 250 251 336 274 210 151 259 259 290 330 277 244 220 203 172 148 119 116 121 102 71 64 63 62 91 88 86 77 46 54 61 44 52
129 93 100 186 178 139 146 185 242 274 267 315 328 354 273 259 190 262 298 303 330 272 283 225 204 182 163 150 134 134 108 85 64 78 86 104 99 112 71 55 69 47 54
57 86 92 145 123 121 129 120 189 244 252 282 335 357 287 283 322 321 299 339 332 358 295 284 222 198 201 198 191 155 151 116 60 93 108 138 110 121 103 71 78 56 53
-2 4 43 11 7 52 116 100 173 188 259 267 283 304 406 335 220 256 167 288 365 325 327 301 262 232 224 231 234 214 175 152 107 105 122 155 137 128 111 100 93 73 47
21 32 -15 18 76 91 84 101 137 191 252 371 208 216 320 150 292 260 144 366 428 321 286 289 288 259 247 249 227 218 231 196 147 122 138 149 155 136 118 97 103 95 67
-32 20 90 28 22 47 110 136 159 180 86 198 236 248 211 269 317 404 464 414 381 322 231 211 267 280 295 296 251 220 228 206 198 146 161 175 174 148 135 118 110 102 86
8 12 78 116 86 49 95 144 122 149 189 216 185 209 236 238 376 363 260 248 305 182 118 87 190 272 320 294 241 230 223 213 225 202 179 202 211 178 155 137 118 97 80
-2 62 47 118 147 157 103 146 155 150 173 185 214 199 202 240 377 400 492 402 289 194 173 168 172 257 309 268 232 188 195 246 214 206 206 239 264 209 195 168 135 107 92
16 56 101 129 145 175 177 112 166 194 196 187 223 218 279 361 405 423 425 438 314 273 231 169 160 183 196 222 221 223 155 208 227 211 209 238 268 225 232 202 174 136 115
57 80 104 157 82 35 102 198 204 215 214 206 232 247 293 302 297 290 234 220 218 208 239 215 166 157 143 143 183 190 147 190 204 182 206 228 256 213 233 230 218 176 148
80 69 137 157 115 78 235 234 229 214 202 252 282 275 286 325 289 248 202 216 197 238 232 159 166 134 160 143 156 189 161 154 208 195 209 220 227 215 218 238 235 212 186
111 107 131 153 90 26 295 366 442 684 312 314 359 331 279 258 186 177 134 127 161 176 202 138 139 155 144 167 171 203 186 182 170 179 162 192 194 211 230 245 247 243 216
124 154 119 113 62 31 108 454 320 644 610 483 473 450 365 240 138 164 154 182 155 149 157 157 140 130 139 190 158 175 183 182 156 144 127 174 196 210 208 223 233 242 249
73 130 124 105 59 -5 -28 97 290 717 605 549 506 431 410 346 288 313 275 213 197 121 124 120 112 142 146 155 181 175 213 210 177 205 184 171 174 134 170 195 205 236 258
9 43 118 99 48 23 -2 56 103 526 614 597 491 449 278 255 244 230 200 193 149 133 123 101 108 172 166 178 101 199 173 170 184 252 255 227 230 178 118 147 111 183 246
-8 27 89 79 19 -22 65 140 154 131 369 481 375 404 236 190 155 151 187 151 161 135 93 88 40 85 149 168 165 192 175 180 164 230 247 156 217 191 140 175 168 219 226
-33 -16 15 3 9 3 61 146 206 191 151 161 121 81 127 119 156 163 168 127 92 105 74 95 74 60 75 87 127 202 197 191 161 169 214 181 152 203 348 307 228 183 217
10 -7 2 -28 -39 13 71 65 229 106 128 173 411 223 103 105 133 156 160 139 130 139 146 150 147 102 115 133 140 133 150 186 272 223 293 251 271 311 316 429 267 213 216
-6 -0 16 28 4 5 80 71 59 59 79 131 104 101 114 69 140 169 131 127 134 127 117 135 120 106 95 91 100 122 179 252 207 155 242 246 192 221 280 277 304 299 194
9 2 4 -6 9 35 80 130 113 60 74 97 73 92 102 91 146 140 63 84 95 102 126 134 117 119 92 83 119 124 146 185 223 191 176 267 272 242 180 190 237 229 256

GFSMA_con_3kmhel_159.txt.gz
Helicity
121 122 115 127 112 122 144 144 134 113 98 80 69 83 108 78 66 79 62 84 102 84 100 127 127 144 106 86 78 59 60 67 81 86 110 65 71 56 52 50 35 28 35
96 132 140 131 132 152 143 178 175 139 118 116 85 81 101 104 94 87 87 86 101 99 104 123 130 143 121 82 108 69 68 74 78 83 97 69 77 63 41 50 32 34 40
164 178 94 129 159 181 163 163 148 171 156 158 121 111 106 123 113 121 127 121 107 103 101 118 134 132 128 109 96 73 77 75 82 85 90 75 65 65 45 37 29 36 48
61 61 204 137 90 186 206 190 194 171 157 165 170 145 134 157 158 141 151 149 140 126 93 114 138 137 123 130 116 85 82 83 81 97 92 83 67 50 37 35 38 52 47
35 35 48 132 187 135 146 184 188 215 218 177 184 194 179 143 160 184 152 169 167 149 157 105 142 143 133 141 131 101 81 84 69 84 89 91 88 52 46 44 36 54 46
84 12 10 45 56 118 228 129 131 199 222 228 218 216 199 189 161 172 181 184 182 181 177 166 122 128 139 146 141 112 79 84 78 67 71 99 111 92 48 49 46 53 49
61 41 -31 -1 47 25 70 169 148 147 177 225 263 204 230 204 206 176 188 217 207 207 197 191 189 177 134 145 148 134 99 87 92 78 74 81 105 97 69 61 64 65 48
25 -8 11 -35 10 27 46 101 85 181 201 205 263 250 168 200 246 249 273 244 242 269 221 227 206 210 199 165 157 135 121 93 100 90 90 94 83 96 91 51 58 70 58
2 4 -9 -6 -12 43 35 50 105 99 174 201 262 252 227 191 250 299 307 302 249 272 224 230 262 230 207 206 172 168 150 130 105 122 107 117 117 95 107 68 50 70 67
-5 -13 -31 -27 -38 -6 15 61 49 153 150 150 286 239 330 321 212 235 292 334 340 262 246 230 230 278 220 212 181 182 190 162 154 122 150 118 149 119 120 105 77 63 75
-17 -20 -6 -15 -41 -47 16 59 96 88 109 111 119 419 300 345 425 306 345 398 417 276 191 158 276 305 278 246 223 173 198 215 175 162 149 155 156 128 136 122 90 71 83
-58 -36 -24 -17 -13 -35 -37 10 87 77 92 85 101 149 300 521 287 209 295 127 166 191 179 123 147 258 272 256 211 194 174 196 181 170 182 184 176 162 128 124 105 85 89
-85 -63 3 11 21 43 40 4 18 65 77 89 119 181 262 268 241 179 144 102 261 330 190 132 269 232 199 173 205 196 209 228 187 193 186 215 205 195 156 140 120 104 91
-24 -15 -18 29 43 78 60 4 -12 18 62 117 117 113 222 245 282 227 238 124 299 330 202 251 204 244 173 278 209 228 258 269 223 181 194 215 252 244 206 178 148 125 107
3 4 15 41 70 131 15 -3 -39 31 97 113 164 162 232 276 274 230 264 268 224 215 231 194 206 161 181 192 192 222 227 185 220 166 165 220 242 269 268 231 189 158 136
18 21 49 61 94 79 27 33 6 20 112 128 180 226 234 310 270 318 308 311 309 253 226 144 189 205 172 164 153 204 195 163 186 177 175 159 199 247 291 286 271 195 172
23 34 51 76 86 42 48 48 46 -7 26 183 174 239 211 260 265 276 282 308 330 325 245 165 126 147 171 164 121 154 134 148 168 192 116 161 152 195 274 313 332 232 205
24 33 49 74 28 11 39 56 64 0 119 197 208 200 174 253 244 230 275 277 296 256 222 168 173 175 180 166 138 143 140 153 149 136 116 135 155 158 238 287 330 283 249
12 23 30 53 15 3 30 134 118 90 118 583 430 448 473 304 294 305 285 274 236 202 223 221 171 185 196 191 194 161 150 150 165 152 147 85 182 160 169 225 268 288 258
22 8 27 53 -6 -29 -22 56 134 152 143 423 847 499 655 588 567 505 425 392 386 261 187 172 191 189 198 198 184 159 149 154 151 193 197 166 104 131 167 174 206 246 253
20 -11 6 15 10 -24 -56 39 53 123 78 108 444 514 450 604 636 578 439 448 341 298 286 156 178 208 173 190 170 166 129 138 150 207 199 213 211 154 152 175 145 182 202
15 -9 -2 12 -5 -1 38 59 73 93 150 163 166 333 466 473 485 525 487 486 415 281 221 200 191 153 138 140 113 132 151 164 126 146 167 112 157 199 80 174 139 164 190
51 17 -2 -18 -18 -43 43 83 76 56 100 136 196 313 265 159 340 374 330 276 309 227 189 179 197 181 155 149 100 94 129 128 94 132 145 155 192 142 170 201 181 173 174
46 12 28 7 -8 -16 8 61 73 36 90 116 104 155 175 239 385 335 309 204 171 180 170 165 159 146 120 100 105 107 130 82 145 163 227 158 198 194 249 247 231 162 155
35 38 17 12 -1 3 32 47 34 9 54 90 114 127 108 223 235 286 188 170 180 152 119 143 139 135 149 116 96 101 92 130 126 142 157 184 141 147 163 182 195 145 209
14 24 28 30 10 3 22 64 58 3 52 100 102 61 120 181 206 133 48 105 123 107 111 133 139 136 126 104 122 81 90 91 152 130 128 188 196 161 56 81 123 118 203

GFSMA_con_3kmhel_162.txt.gz
Helicity
143 163 123 128 129 123 115 112 104 109 117 94 86 102 82 63 56 65 73 73 89 98 74 98 127 122 130 106 74 50 58 74 66 71 105 85 65 61 63 67 49 38 34
69 67 107 123 126 134 136 124 137 142 135 135 89 96 109 87 77 73 83 89 86 105 82 77 97 121 124 113 81 92 72 67 67 71 90 79 65 63 63 61 45 29 34
69 69 74 78 103 195 112 133 128 129 149 177 139 128 122 117 94 93 96 106 101 89 103 79 98 104 111 117 106 107 89 73 81 78 92 92 75 65 55 44 33 31 35
53 53 40 33 76 86 135 162 139 138 121 178 164 160 171 160 133 125 134 133 133 121 105 87 96 107 112 121 131 110 96 79 83 85 97 88 79 61 52 47 49 28 26
53 35 19 54 75 57 84 102 193 139 137 134 159 172 190 188 188 176 173 179 173 162 161 124 96 119 122 120 123 130 101 79 78 82 96 84 77 71 51 41 39 34 36
27 7 24 73 54 36 54 93 90 113 275 141 149 162 172 209 197 205 191 222 223 185 178 174 131 83 113 134 128 126 101 102 78 70 74 84 82 74 68 46 35 46 39
96 26 -5 -16 48 72 56 85 95 75 60 328 176 181 219 170 199 206 222 221 222 223 215 197 199 180 124 128 146 133 109 90 98 82 75 73 78 123 87 49 45 39 47
79 50 -10 -25 13 20 60 56 50 71 69 37 298 188 217 259 180 190 233 227 220 269 258 237 216 197 192 175 131 140 130 96 105 114 101 103 84 111 124 85 56 44 50
43 36 38 7 -25 -1 17 12 43 63 31 62 176 165 201 559 291 253 226 282 246 298 299 299 287 247 223 189 186 166 155 122 94 115 136 154 127 119 116 108 67 51 57
55 40 32 23 15 -7 -23 10 -12 47 44 35 77 93 172 189 279 255 425 310 296 281 275 329 316 253 240 239 173 167 186 164 121 120 163 182 168 142 130 129 84 61 53
21 19 4 2 2 -8 10 -2 5 30 50 49 73 67 96 146 177 250 260 269 278 272 258 311 407 332 39 158 175 173 167 184 166 141 164 201 184 163 138 132 121 85 73
-11 3 -4 -14 -14 -2 26 25 37 13 22 79 89 111 105 100 101 159 193 213 490 509 431 283 321 295 265 77 149 164 187 196 160 150 157 213 210 185 161 139 124 116 86
-10 -38 -52 19 54 53 45 37 59 67 8 50 100 98 130 112 142 155 241 343 500 186 199 203 198 254 248 255 84 194 239 202 160 143 152 195 215 210 195 165 146 119 100
-9 -28 -19 2 27 47 74 87 32 8 12 -3 57 100 112 111 139 150 270 250 228 153 193 323 291 147 223 228 266 203 174 198 168 156 140 193 235 238 224 196 173 129 110
40 18 2 17 29 52 60 27 18 12 19 34 24 65 93 104 129 150 221 246 232 226 183 244 289 90 68 109 236 187 181 142 157 189 185 206 209 245 259 251 214 179 140
41 42 11 -0 27 30 21 30 12 4 24 38 44 78 105 138 122 149 229 259 241 195 223 236 122 130 168 169 176 165 159 154 167 265 208 213 208 213 262 261 252 221 197
44 61 29 3 31 31 10 -23 -7 -8 36 78 67 73 100 114 119 148 257 266 252 217 183 261 225 235 224 182 144 177 171 178 150 174 212 218 198 225 239 265 286 258 239
59 56 46 27 28 28 -11 -35 -27 -5 24 85 80 77 119 53 81 91 234 260 270 270 279 211 260 274 218 172 140 161 156 157 147 140 193 197 204 178 200 249 308 302 289
69 58 44 29 2 15 22 -17 -17 3 -12 63 112 88 164 146 108 163 209 233 251 275 225 211 269 254 217 238 151 186 171 191 184 157 159 191 171 187 236 209 262 267 287
64 53 36 24 2 4 30 -9 26 24 13 36 114 169 58 310 268 483 445 319 216 219 244 256 237 210 203 248 257 220 240 213 151 177 178 162 170 143 218 175 213 197 233
80 52 39 30 13 9 23 -3 39 -2 16 27 56 100 88 236 283 663 484 566 469 277 201 187 194 276 195 226 223 229 195 173 167 164 155 183 190 164 157 187 133 214 206
72 66 46 36 11 18 13 3 28 7 -10 23 31 62 86 175 248 534 589 620 471 408 316 300 283 268 211 166 202 180 174 206 157 144 152 148 213 226 194 205 115 132 178
55 67 51 42 7 25 9 22 16 -6 8 13 48 69 61 97 238 311 310 355 491 464 455 427 373 366 310 272 270 188 176 194 160 158 150 164 203 156 230 196 160 145 167
43 56 47 40 34 28 -7 26 39 12 -27 3 10 52 93 150 218 281 136 199 389 350 395 321 304 315 295 250 229 225 216 182 156 124 107 76 157 158 184 199 174 133 166
27 35 40 34 20 22 10 20 23 43 1 5 12 24 13 41 177 205 117 176 126 182 332 216 302 284 220 205 178 133 121 88 82 78 146 103 69 84 111 113 142 158 175
12 23 25 24 5 19 15 30 30 -15 24 22 19 38 48 24 69 156 139 149 336 147 115 270 289 167 211 209 186 98 96 102 139 130 92 160 153 130 106 74 151 139 164